TimeEST,TemperatureF,Dew PointF,Humidity,Sea Level PressureIn,VisibilityMPH,Wind Direction,Wind SpeedMPH,Gust SpeedMPH,PrecipitationIn,Events,Conditions,WindDirDegrees,DateUTC
12:53 AM,18.0,8.1,65,30.22,10.0,WNW,4.6,-,N/A,,Mostly Cloudy,300,2013-12-12 05:53:00
1:53 AM,17.1,6.1,62,30.23,10.0,NW,5.8,-,N/A,,Partly Cloudy,320,2013-12-12 06:53:00
2:53 AM,16.0,1.9,54,30.26,10.0,WNW,8.1,-,N/A,,Clear,300,2013-12-12 07:53:00
3:53 AM,16.0,1.0,52,30.26,10.0,NW,8.1,-,N/A,,Clear,310,2013-12-12 08:53:00
4:53 AM,12.9,1.0,59,30.27,10.0,NW,5.8,-,N/A,,Clear,310,2013-12-12 09:53:00
5:53 AM,8.1,1.0,73,30.30,10.0,Calm,Calm,-,N/A,,Clear,0,2013-12-12 10:53:00
6:53 AM,6.1,1.9,83,30.32,10.0,Calm,Calm,-,N/A,,Clear,0,2013-12-12 11:53:00
7:53 AM,7.0,1.0,77,30.33,10.0,Calm,Calm,-,N/A,,Clear,0,2013-12-12 12:53:00
8:53 AM,12.0,3.9,70,30.35,10.0,Calm,Calm,-,N/A,,Clear,0,2013-12-12 13:53:00
9:53 AM,17.1,-0.0,47,30.33,10.0,NW,3.5,-,N/A,,Clear,310,2013-12-12 14:53:00
10:53 AM,18.0,-6.0,35,30.32,10.0,Calm,Calm,-,N/A,,Clear,0,2013-12-12 15:53:00
11:53 AM,19.9,-2.0,38,30.28,10.0,SSW,10.4,-,N/A,,Clear,200,2013-12-12 16:53:00
12:53 PM,19.9,-0.9,40,30.25,10.0,WNW,9.2,-,N/A,,Overcast,290,2013-12-12 17:53:00
1:53 PM,19.9,3.0,48,30.23,10.0,SW,8.1,-,N/A,,Overcast,230,2013-12-12 18:53:00
2:53 PM,19.9,1.9,46,30.21,10.0,WSW,9.2,16.1,N/A,,Overcast,240,2013-12-12 19:53:00
3:53 PM,19.0,3.9,52,30.20,10.0,Variable,6.9,-,N/A,,Partly Cloudy,0,2013-12-12 20:53:00
4:53 PM,18.0,5.0,57,30.19,10.0,SSW,8.1,-,N/A,,Partly Cloudy,200,2013-12-12 21:53:00
5:53 PM,17.1,8.1,68,30.18,9.0,South,10.4,-,N/A,,Overcast,190,2013-12-12 22:53:00
6:53 PM,17.1,8.1,68,30.17,8.0,South,8.1,-,N/A,,Overcast,190,2013-12-12 23:53:00
7:53 PM,17.1,6.1,62,30.14,10.0,SSW,9.2,-,N/A,,Clear,200,2013-12-13 00:53:00
8:53 PM,17.1,5.0,59,30.11,10.0,SSW,9.2,-,N/A,,Partly Cloudy,200,2013-12-13 01:53:00
9:53 PM,17.1,5.0,59,30.09,10.0,SSW,8.1,-,N/A,,Clear,210,2013-12-13 02:53:00
10:53 PM,16.0,3.9,59,30.06,10.0,SSW,9.2,-,N/A,,Partly Cloudy,200,2013-12-13 03:53:00
11:53 PM,17.1,3.9,56,30.03,6.0,SSW,10.4,-,N/A,,Haze,200,2013-12-13 04:53:00